DW7857 Weather Reports


time (UTC)temp
F
wind
direction
speed
knots
gust
knots
rain 1hr
in
rain 24hr
in
rain mn
in
humidity
%
barometer
mb
20260505050903 48 45 1.7 2.6 0.00 0.00 0.00 95 1016.8
20260505040903 49 64 0.9 1.7 0.00 0.00 0.00 93 1017.0
20260505040004 49 64 1.7 2.6 0.00 0.00 0.00 93 1016.9
20260505035403 49 51 1.7 2.6 0.00 0.00 0.00 93 1017.0
20260505034503 49 58 1.7 2.6 0.00 0.00 0.00 93 1017.1
20260505033603 49 71 1.7 2.6 0.00 0.00 0.00 93 1017.0
20260505032703 50 72 1.7 2.6 0.00 0.00 0.00 93 1017.2
20260505031803 50 60 1.7 2.6 0.00 0.00 0.00 93 1016.9
20260505030903 50 52 1.7 3.5 0.00 0.00 0.00 92 1016.8
20260505030213 50 66 2.6 3.5 0.00 0.00 0.00 92 1017.1
20260505025403 50 54 1.7 2.6 0.00 0.00 0.00 92 1017.0
20260505024503 51 60 1.7 2.6 0.00 0.00 0.00 92 1017.2
20260505023813 51 51 1.7 1.7 0.00 0.00 0.00 92 1016.8
20260505022703 51 70 0.9 1.7 0.00 0.00 0.00 92 1016.8
20260505021803 51 80 0.9 1.7 0.00 0.00 0.00 91 1017.3
20260505020903 51 52 1.7 1.7 0.00 0.00 0.00 91 1017.2
20260505020003 51 45 1.7 1.7 0.00 0.00 0.00 91 1017.5
20260505015403 52 45 0.9 1.7 0.00 0.00 0.00 91 1017.3
20260505014503 52 54 0.9 1.7 0.00 0.00 0.00 91 1017.3
20260505013813 52 67 0.9 1.7 0.00 0.00 0.00 91 1017.5
20260505012703 52 48 0.9 1.7 0.00 0.00 0.00 91 1017.5
20260505011803 52 67 0.9 1.7 0.00 0.00 0.00 91 1017.3
20260505010903 52 29 0.9 1.7 0.00 0.00 0.00 91 1017.6
20260505010003 52 35 1.7 1.7 0.00 0.00 0.00 91 1017.5
20260505005403 53 63 0.9 1.7 0.00 0.00 0.00 91 1017.5
20260505004503 53 22 1.7 2.6 0.00 0.00 0.00 92 1017.7
20260505003812 53 6 1.7 1.7 0.00 0.00 0.00 92 1017.7
20260505002914 53 315 1.7 1.7 0.00 0.00 0.00 92 1017.8
20260505001803 53 334 0.9 2.6 0.00 0.00 0.00 92 1017.6
20260505000903 53 6 0.9 1.7 0.00 0.00 0.00 92 1017.8
20260505000003 53 54 0.9 1.7 0.00 0.00 0.00 92 1018.1
20260504235613 53 48 0.9 1.7 0.00 0.00 0.00 92 1018.2
20260504234503 53 34 0.9 1.7 0.00 0.00 0.00 92 1018.1
20260504233603 53 66 1.7 2.6 0.00 0.00 0.00 91 1018.0
20260504232703 53 53 1.7 2.6 0.00 0.00 0.00 91 1018.1
20260504232013 53 19 0.9 1.7 0.00 0.00 0.00 91 1017.8
20260504230903 53 140 0.9 1.7 0.00 0.00 0.00 91 1018.1
20260504230004 53 91 0.9 1.7 0.00 0.00 0.00 91 1017.8
20260504225403 53 6 1.7 4.3 0.00 0.00 0.00 91 1017.5
20260504224503 53 327 2.6 4.3 0.00 0.00 0.00 91 1017.5
20260504223603 54 27 1.7 2.6 0.00 0.00 0.00 90 1017.8
20260504222703 54 57 2.6 3.5 0.00 0.00 0.00 90 1018.0
20260504221803 54 61 1.7 3.5 0.00 0.00 0.00 90 1017.9
20260504220903 54 44 1.7 2.6 0.00 0.00 0.00 90 1017.9
20260504220003 55 68 1.7 3.5 0.00 0.00 0.00 86 1018.0
20260504215403 55 50 1.7 3.5 0.00 0.00 0.00 86 1018.1
20260504214503 55 33 1.7 2.6 0.00 0.00 0.00 86 1018.3
20260504213603 55 334 1.7 1.7 0.00 0.00 0.00 86 1018.1
20260504212703 55 59 1.7 1.7 0.00 0.00 0.00 85 1018.3
20260504211803 55 60 0.9 1.7 0.00 0.00 0.00 85 1018.1
20260504210903 55 62 0.9 1.7 0.00 0.00 0.00 84 1018.4
20260504210004 55 45 0.9 1.7 0.00 0.00 0.00 84 1018.0
20260504205403 55 48 1.7 1.7 0.00 0.00 0.00 84 1018.2
20260504204503 55 45 1.7 1.7 0.00 0.00 0.00 84 1018.3
20260504203603 55 25 1.7 1.7 0.00 0.00 0.00 84 1018.4
20260504202703 56 59 1.7 1.7 0.00 0.00 0.00 83 1018.2
20260504201803 56 43 1.7 1.7 0.00 0.00 0.00 83 1018.3
20260504200903 56 45 0.9 1.7 0.00 0.00 0.00 82 1018.0
20260504200003 56 45 0.9 1.7 0.00 0.00 0.00 82 1018.0
20260504195403 56 45 0.9 1.7 0.00 0.00 0.00 82 1017.9
20260504194503 57 71 0.9 1.7 0.00 0.00 0.00 82 1017.9
20260504193812 57 76 1.7 2.6 0.00 0.00 0.00 81 1017.8
20260504192703 57 65 1.7 2.6 0.00 0.00 0.00 81 1017.7
20260504191803 57 53 1.7 2.6 0.00 0.00 0.00 81 1017.5
20260504190903 57 106 1.7 1.7 0.00 0.00 0.00 81 1017.6
20260504190003 57 56 1.7 3.5 0.00 0.00 0.00 80 1017.6
20260504185403 58 58 1.7 3.5 0.00 0.00 0.00 80 1017.7
20260504184504 58 40 2.6 3.5 0.00 0.00 0.00 80 1017.4
20260504183603 58 73 3.5 5.2 0.00 0.00 0.00 79 1017.5
20260504182703 58 52 2.6 4.3 0.00 0.00 0.00 79 1017.8
20260504181803 58 61 3.5 5.2 0.00 0.00 0.00 78 1017.2
20260504180903 58 86 4.3 5.2 0.00 0.00 0.00 78 1017.4
20260504180214 59 64 3.5 5.2 0.00 0.00 0.00 77 1017.2
20260504175403 59 61 3.5 6.1 0.00 0.00 0.00 77 1017.3
20260504174503 59 52 3.5 6.1 0.00 0.00 0.00 77 1017.4
20260504173603 59 79 3.5 6.1 0.00 0.00 0.00 77 1017.3
20260504172703 59 33 3.5 3.5 0.00 0.00 0.00 76 1017.4
20260504171803 59 65 3.5 3.5 0.00 0.00 0.00 76 1017.2
20260504170903 59 3 3.5 7.0 0.00 0.00 0.00 77 1017.2
20260504170213 59 48 3.5 3.5 0.00 0.00 0.00 78 1017.2
20260504151113 67 219 4.3 5.2 0.00 0.00 0.00 53 1017.1
20260504140903 67 205 5.2 9.6 0.00 0.00 0.00 52 1017.0
20260504100212 64 84 2.6 3.5 0.00 0.00 0.00 60 1017.6
20260504081803 61 214 1.7 1.7 0.00 0.00 0.00 67 1017.2
20260504080903 61 247 0.9 1.7 0.00 0.00 0.00 68 1017.2
20260504070213 59 171 2.6 3.5 0.00 0.00 0.00 78 1016.9